This is the latest recevied weather packets stored in our database for station/object OE-11344. If no packets are shown the sender has not sent any weather packets the latest 10 day(s).
| Time | Temp. | Humidity | Pressure | Rain* | Wind** | Luminosity | Snow |
|---|---|---|---|---|---|---|---|
| 1787912712 | 24.44° C | 33% | 851.4 hPa | 0 mm | - | 761 W/m² | - |
| 1787911885 | 25° C | 33% | 851.6 hPa | 0 mm | - | 707 W/m² | - |
| 1787911512 | 25° C | 34% | 851.7 hPa | 0 mm | - | 743 W/m² | - |
| 1787910911 | 24.44° C | 35% | 851.7 hPa | 0 mm | - | 719 W/m² | - |
| 1787910085 | 24.44° C | 33% | 852.2 hPa | 0 mm | - | 713 W/m² | - |
| 1787909711 | 24.44° C | 34% | 852 hPa | 0 mm | - | 688 W/m² | - |
| 1787909112 | 24.44° C | 35% | 852.4 hPa | 0 mm | - | 670 W/m² | - |
| 1787908284 | 24.44° C | 34% | 852.8 hPa | 0 mm | - | 664 W/m² | - |
| 1787907912 | 23.89° C | 34% | 852.7 hPa | 0 mm | - | 634 W/m² | - |
| 1787907312 | 24.44° C | 36% | 853 hPa | 0 mm | - | 610 W/m² | - |
| 1787906484 | 23.89° C | 34% | 853 hPa | 0 mm | - | 598 W/m² | - |
| 1787906110 | 23.89° C | 34% | 853 hPa | 0 mm | - | 562 W/m² | - |
| 1787905510 | 23.89° C | 35% | 852.8 hPa | 0 mm | - | 537 W/m² | - |
| 1787904685 | 23.33° C | 35% | 852.6 hPa | 0 mm | - | 513 W/m² | - |
| 1787904312 | 23.33° C | 38% | 853 hPa | 0 mm | - | 459 W/m² | - |
| 1787903712 | 23.33° C | 36% | 852.8 hPa | 0 mm | - | 308 W/m² | - |
| 1787902884 | 22.78° C | 37% | 852.9 hPa | 0 mm | - | 109 W/m² | - |
| 1787902512 | 22.78° C | 37% | 853 hPa | 0 mm | - | 199 W/m² | - |
| 1787901912 | 22.78° C | 37% | 853 hPa | 0 mm | - | 199 W/m² | - |
| 1787901084 | 22.78° C | 36% | 852.9 hPa | 0 mm | - | 145 W/m² | - |
| 1787900711 | 22.78° C | 36% | 853.1 hPa | 0 mm | - | 139 W/m² | - |
| 1787900112 | 22.78° C | 36% | 853.1 hPa | 0 mm | - | 115 W/m² | - |
| 1787899285 | 22.78° C | 36% | 852.8 hPa | 0 mm | - | 103 W/m² | - |
| 1787898911 | 22.78° C | 36% | 853.1 hPa | 0 mm | - | 91 W/m² | - |
| 1787898312 | 22.78° C | 35% | 853.3 hPa | 0 mm | - | 72 W/m² | - |
* Rain latest hour (hover to see other rain measurements)
** Current wind speed in m/s (hover to see current wind gust speed)